Location: Sternwarte auf dem Internationalen Platz Vogelsang IP
(50.5721°N, 6.4398°E)
Time: 20:41:44
(UTC+01:00)

Transit 2A Rocket - Pass Details

Date: 14 December 2025
Orbit: 581 x 903 km, 66.7° (Epoch: 12 January)

Event Time Altitude Azimuth Distance (km) Brightness Sun altitude
Rises 10:50:15 0° 256° (WSW) 3,384 8.2 13.0°
Reaches altitude 10° 10:52:57 10° 267° (W) 2,493 7.5 13.2°
Maximum altitude 10:58:04 31° 328° (NNW) 1,525 6.2 13.5°
Drops below altitude 10° 11:03:22 10° 29° (NNE) 2,589 7.4 13.8°
Sets 11:06:14 0° 40° (NE) 3,535 8.1 14.0°
